TimeEDT,TemperatureF,Dew PointF,Humidity,Sea Level PressureIn,VisibilityMPH,Wind Direction,Wind SpeedMPH,Gust SpeedMPH,PrecipitationIn,Events,Conditions,WindDirDegrees,DateUTC
12:55 AM,55.2,35.6,48,30.14,10.0,NW,12.7,-,N/A,,Clear,310,2012-10-11 04:55:00
1:55 AM,50.0,37.0,61,30.16,10.0,Calm,Calm,-,N/A,,Clear,0,2012-10-11 05:55:00
2:55 AM,50.9,35.6,56,30.16,10.0,NW,9.2,-,N/A,,Clear,310,2012-10-11 06:55:00
3:55 AM,49.3,35.1,58,30.18,10.0,NW,10.4,-,N/A,,Clear,310,2012-10-11 07:55:00
4:55 AM,49.5,32.5,52,30.22,10.0,NW,9.2,-,N/A,,Clear,310,2012-10-11 08:55:00
5:55 AM,46.6,33.1,59,30.25,10.0,Calm,Calm,-,N/A,,Clear,0,2012-10-11 09:55:00
6:55 AM,46.2,32.4,58,30.27,10.0,NW,15.0,-,N/A,,Clear,310,2012-10-11 10:55:00
7:55 AM,44.6,33.8,66,30.30,10.0,Calm,Calm,-,N/A,,Clear,0,2012-10-11 11:55:00
8:55 AM,50.2,30.6,47,30.31,10.0,Variable,6.9,-,N/A,,Clear,0,2012-10-11 12:55:00
9:55 AM,52.0,29.3,42,30.32,10.0,NW,5.8,17.3,N/A,,Clear,310,2012-10-11 13:55:00
10:55 AM,53.8,29.8,40,30.33,10.0,Variable,6.9,-,N/A,,Clear,0,2012-10-11 14:55:00
11:55 AM,56.3,30.4,37,30.31,10.0,NNW,8.1,-,N/A,,Clear,340,2012-10-11 15:55:00
12:55 PM,58.3,31.6,36,30.29,10.0,Variable,3.5,-,N/A,,Clear,0,2012-10-11 16:55:00
1:55 PM,60.3,32.5,35,30.26,10.0,Variable,4.6,-,N/A,,Clear,0,2012-10-11 17:55:00
2:55 PM,61.5,30.9,32,30.25,10.0,West,4.6,-,N/A,,Clear,270,2012-10-11 18:55:00
3:55 PM,62.1,32.0,32,30.23,10.0,Calm,Calm,-,N/A,,Clear,0,2012-10-11 19:55:00
4:55 PM,61.2,33.6,36,30.23,10.0,Variable,4.6,-,N/A,,Clear,0,2012-10-11 20:55:00
5:55 PM,58.5,36.1,43,30.23,10.0,SE,4.6,-,N/A,,Clear,130,2012-10-11 21:55:00
6:55 PM,51.3,41.4,69,30.22,10.0,Calm,Calm,-,N/A,,Clear,0,2012-10-11 22:55:00
8:55 PM,44.6,42.1,91,30.23,10.0,Calm,Calm,-,N/A,,Clear,0,2012-10-12 00:55:00
9:55 PM,43.2,41.9,95,30.22,10.0,Calm,Calm,-,N/A,,Clear,0,2012-10-12 01:55:00
10:55 PM,42.6,41.7,97,30.21,10.0,Calm,Calm,-,N/A,,Clear,0,2012-10-12 02:55:00
11:55 PM,41.9,41.5,99,30.20,10.0,Calm,Calm,-,N/A,,Clear,0,2012-10-12 03:55:00